Location: Amon Carter Post Office
(32.8281°N, 97.0484°W)
Time: 11:40:58
(UTC+00:00)

Sich 1 - Pass Details

Date: 09 July 2022
Orbit: 593 x 622 km, 82.5° (Epoch: 10 August)

Event Time Altitude Azimuth Distance (km) Brightness Sun altitude
Exits shadow 08:36:30 30° 95° (E) 1,084 4.5 -27.5°
Maximum altitude 08:36:39 30° 91° (E) 1,082 4.5 -27.5°
Drops below altitude 10° 08:40:23 10° 30° (NNE) 1,936 6.6 -27.1°
Sets 08:42:47 0° 19° (NNE) 2,839 7.7 -26.8°
